Location: *
(51.4660°N, 0.3360°W)
Time: 15:12:02
(UTC+00:00)

Cosmos 1674 - Pass Details

Date: 19 September 2019
Orbit: 494 x 520 km, 82.5° (Epoch: 14 October)

Event Time Altitude Azimuth Distance (km) Brightness Sun altitude
Rises 19:33:15 0° 356° (N) 2,602 6.6 -13.9°
Reaches altitude 10° 19:35:31 10° 5° (N) 1,711 5.5 -14.2°
Maximum altitude 19:38:58 35° 73° (ENE) 825 3.3 -14.7°
Enters shadow 19:40:00 29° 108° (ESE) 939 3.4 -14.9°
